Погода в Герейхановском

Россия / Республика Дагестан     41°42′04″N   48°16′52″E
темп.,
°C
ветер,
м/с
пор.,
м/с
влажн.,
%
обл.,
%
осадки,
мм/ч
давл.,
гПа
погр.,
м
29 мая, вс
вс2900:00+15ююз11710 0.0 101315
03:00+14юз01700 0.0 101312
06:00+17ссв00620 0.0 101473
09:00+23в22460 0.0 1014601
12:00+26св42400 0.0 10131038
15:00+26св42421 0.0 1013761
18:00+22св11545 0.0 1014105
21:00+18зюз227318 0.1 101512
30 мая, пн
пн3000:00+16з117524 0.0 101511
03:00+17зюз227494 0.0 101512
06:00+21зюз1162100 0.0 101544
09:00+26всв114824 0.0 1016677
12:00+29всв54400 0.0 10151548
15:00+27всв43416 0.0 1015951
18:00+25всв334423 0.1 101464
21:00+19з225444 0.1 101614
31 мая, вт
вт3100:00+18юз22624 0.0 101517
03:00+18юз22603 0.0 101417
06:00+22юз22520 0.0 101561
09:00+28вюв34290 0.0 1014989
12:00+31в65181 0.0 10131701
15:00+29всв652218 0.0 10131008
18:00+24св2242100 0.0 101319
21:00+20зюз224353 0.0 101416
1 июня, ср
ср100:00+18зюз22522 0.0 101315
03:00+17зюз22600 0.0 101316
06:00+22з22491 0.0 101468
09:00+27в12330 0.0 1014754
12:00+31всв44231 0.0 10131530
15:00+30всв44215 0.0 1013990
18:00+25всв223999 0.0 101419
21:00+19зюз22454 0.0 101415
2 июня, чт
чт200:00+18зюз225423 0.0 101415
03:00+18зюз225319 0.0 101415
06:00+23зюз124976 0.0 101558
09:00+28св21320 0.0 1014671
12:00+30св42290 0.0 10141174
15:00+28св433183 0.0 1014540
18:00+24с11434 0.1 1015107
21:00+20зюз2258100 0.1 101513